ROMMA est une association bénévole à but non lucratif. Votre soutien est indispensable : ADHERER à ROMMA ou FAIRE un DON

Chambon - (38, Isère)

Oisans (2460 m)   Longitude: 06° 10' 42" E   Latitude: 45° 01' 32" N Station partenaire n°803
 

Détail journalier du     <<     >>

Température Humidité Vent Dir Rafale Dir. rafale Neige 1 Neige 2
Heure (°C) (%) (km/h) (km/h) (cm) (cm)
01:00 -0.5186SSO14SSO178214
02:00 -0.6177SO11SO178214
03:00 -1.0183SSO8SO178214
04:00 -1.6181S6S178214
05:00 -1.7181S5SO178214
06:00 -1.3182SO6OSO178214
07:00 -1.9182SO5SO178214
08:00 -1.2172OSO6OSO178214
09:00 2.5143S7S177213
10:00 2.4152S7O177213
11:00 1.5184NNE15NNE178214
12:00 1.9197NNE21NNE178213
13:00 1.6199NNE17NNE178213
14:00 1.91918ENE27E178213
15:00 2.02018E27E178213
16:00 2.02511E23E177213
17:00 6.0182ESE13ESE177213
18:00 3.0221N5ESE177213
19:00 1.3263N9ENE177213
20:00 0.1305ENE11ENE177213
21:00 0.6285ENE12ENE177213
22:00 0.1263N11NE177213
23:00 0.5234NE8NE177213
minuit 0.3254NNE8NNE177213

Graphique du 22-03-2019

 

Serveur OMMA